Terminal Aerodrome Forecast
Issued by NWS

Home | Current Version | Previous Version | Graphics & Text | Print | Product List | Glossary On
Versions: 1 2 3 4 5 6 7 8 9 10 11 12 13 14 15 16 17 18
000
FTUS43 KMPX 171100
TAFRWF
TAF
KRWF 171127Z 1712/1812 VRB02KT P6SM SCT060
     FM171800 01005KT P6SM SKC
     FM180600 10006KT P6SM SKC=

USA.gov is the U.S. government's official web portal to all federal, state and local government web resources and services.